User: anonymous   Login
Location: Paris
(48.6709°N, 2.3750°E)
Time: 21:44:48
(UTC+02:00)
Language:

CUTE 1.7 + AOD 2 - Orbit

View from above orbital plane
View from above orbital plane
View from above satellite
View from above satellite

Ground track
Ground track

The orbit data is extracted from the following two-line orbital elements,

1 32785U 08021C   22177.49872052  .00001160  00000-0  12695-3 0  9996
2 32785  97.6575 148.0606 0011980 196.8439 163.2383 14.89620089767902
Epoch (UTC): 26 June 2022 11:58:09
Eccentricity: 0.0011980
inclination: 97.6575°
perigee height: 591 km
apogee height: 607 km
right ascension of ascending node: 148.0606°
argument of perigee: 196.8439°
revolutions per day: 14.89620089
mean anomaly at epoch: 163.2383°
orbit number at epoch: 76790

The dashed part of the orbit path shows where the satellite is in the earth's shadow,  

DLR